Spokane Felts, WA

4:52 PM PDT on April 28, 2017 (GMT -0700)
Felts

Weather History for KSFF - July, 2013

Change the Weather History Date:

Wednesday, July 17, 2013

  Actual Average Record
Temperature  
Mean Temperature 80 °F 70 °F  
Max Temperature 91 °F 86 °F 98 °F (2004)
Min Temperature 68 °F 55 °F 50 °F (2000)
Degree Days  
Heating Degree Days 0 0  
Month to date heating degree days 0 18  
Since 1 June heating degree days 105 136  
Since 1 July heating degree days 0 18  
Cooling Degree Days 15 6  
Month to date cooling degree days 136 79  
Year to date cooling degree days 219 126  
Since 1 June cooling degree days 193 119  
Growing Degree Days 31 (Base 50)    
Moisture  
Dew Point 50 °F    
Average Humidity 41    
Maximum Humidity 61    
Minimum Humidity 21    
Precipitation  
Precipitation 0.00 in 0.02 in 0.08 in (2012)
Month to date precipitation T 0.57  
Year to date precipitation 7.96 9.79  
Sea Level Pressure  
Sea Level Pressure 29.93 in    
Wind  
Wind Speed 5 mph (SSW)    
Max Wind Speed 16 mph    
Max Gust Speed 22 mph    
Visibility 10 miles    
Events Rain , Thunderstorm    
T = Trace of Precipitation, MM = Missing Value Source: NWS Daily Summary

Daily Weather History Graph

Daily Weather History Graph

Search for Another Location

Airport or City:

Trip Planner

Search our weather history database for the weather conditions in past years. The results will help you decide how hot, cold, wet, or windy it might be!

Date:

Astronomy

Jul. 17, 2013 Rise Set
Actual Time 5:09 AM PDT 8:41 PM PDT
Civil Twilight 4:30 AM PDT 9:19 PM PDT
Nautical Twilight 3:39 AM PDT 10:10 PM PDT
Astronomical Twilight 2:29 AM PDT 11:19 PM PDT
Moon 3:29 PM PDT (7/17) 12:27 AM PDT (7/17)
Length of Visible Light 16h 48m
Length of Day
15h 31m
Waxing Gibbous, 68% of the Moon is Illuminated
Jul 17
Waxing Gibbous
Jul 22
Full
Jul 29
Last Quarter
Aug 6
New
Aug 14
First Quarter

Hourly Weather History & Observations

Time (PDT) Temp. Dew Point Humidity Pressure Visibility Wind Dir Wind Speed Gust Speed Precip Events Conditions
12:01 AM 77.0 °F 48.2 °F 36% 29.88 in 10.0 mi East 10.4 mph - N/A   Mostly Cloudy
12:10 AM 78.8 °F 50.0 °F 36% 29.87 in 10.0 mi ENE 8.1 mph - N/A Thunderstorm Mostly Cloudy
12:32 AM 77.0 °F 53.6 °F 44% 29.84 in 10.0 mi NE 5.8 mph 17.3 mph 0.00 in Rain Light Rain
12:53 AM 79.0 °F 53.1 °F 40% 29.81 in 10.0 mi SE 11.5 mph 20.7 mph 0.00 in   Partly Cloudy
1:53 AM 75.9 °F 54.0 °F 46% 29.84 in 10.0 mi SE 3.5 mph - N/A   Scattered Clouds
2:53 AM 75.0 °F 52.0 °F 44% 29.86 in 10.0 mi Calm Calm - N/A   Clear
3:53 AM 77.0 °F 54.0 °F 45% 29.84 in 10.0 mi WNW 10.4 mph - N/A   Clear
4:53 AM 73.0 °F 53.1 °F 49% 29.85 in 10.0 mi Calm Calm - N/A   Clear
5:53 AM 71.1 °F 57.0 °F 61% 29.89 in 10.0 mi Calm Calm - N/A   Clear
6:53 AM 73.0 °F 57.9 °F 59% 29.91 in 10.0 mi Calm Calm - N/A   Partly Cloudy
7:53 AM 75.9 °F 57.9 °F 54% 29.93 in 10.0 mi SE 5.8 mph - N/A   Clear
8:53 AM 79.0 °F 55.9 °F 45% 29.93 in 10.0 mi SE 6.9 mph - N/A   Scattered Clouds
9:53 AM 80.1 °F 48.0 °F 32% 29.94 in 10.0 mi South 6.9 mph - N/A   Mostly Cloudy
10:53 AM 82.0 °F 48.0 °F 30% 29.96 in 10.0 mi South 10.4 mph - N/A   Mostly Cloudy
11:53 AM 84.0 °F 48.0 °F 28% 29.96 in 10.0 mi SSW 12.7 mph 16.1 mph N/A   Mostly Cloudy
12:53 PM 84.9 °F 48.9 °F 29% 29.97 in 10.0 mi SSW 11.5 mph 18.4 mph N/A   Mostly Cloudy
1:53 PM 88.0 °F 50.0 °F 27% 29.96 in 10.0 mi WSW 8.1 mph - N/A   Partly Cloudy
2:53 PM 90.0 °F 48.9 °F 24% 29.97 in 10.0 mi West 8.1 mph 16.1 mph N/A   Clear
3:53 PM 87.1 °F 48.0 °F 26% 29.97 in 10.0 mi WSW 10.4 mph 16.1 mph N/A   Partly Cloudy
4:53 PM 91.0 °F 46.0 °F 21% 29.96 in 10.0 mi West 5.8 mph - N/A   Clear
5:53 PM 89.1 °F 46.0 °F 22% 29.95 in 10.0 mi Calm Calm - N/A   Clear
6:53 PM 89.1 °F 46.0 °F 22% 29.95 in 10.0 mi West 10.4 mph - N/A   Partly Cloudy
7:53 PM 84.9 °F 48.0 °F 28% 29.96 in 10.0 mi NW 3.5 mph - N/A   Clear
8:53 PM 77.0 °F 48.0 °F 36% 29.98 in 10.0 mi North 3.5 mph - N/A   Clear
9:53 PM 73.0 °F 46.9 °F 39% 30.01 in 10.0 mi Calm Calm - N/A   Clear
10:53 PM 71.1 °F 46.9 °F 42% 30.02 in 10.0 mi North 3.5 mph - N/A   Clear
11:53 PM 73.9 °F 48.0 °F 40% 30.02 in 10.0 mi Calm Calm - N/A   Clear